Location: Austin
(30.3000°N, 97.7500°W)
Time: 10:26:15
(UTC-05:00)

USA 234 - Pass Details

Date: 20 April 2024
Orbit: 1100 x 1107 km, 123.0° (Epoch: 08 July)

Event Time Altitude Azimuth Distance (km) Brightness Sun altitude
Exits shadow 22:26:29 57° 65° (ENE) 1,272 3.3 -28.9°
Maximum altitude 22:27:01 59° 44° (NE) 1,252 3.4 -29.0°
Drops below altitude 10° 22:33:24 10° 327° (NNW) 2,956 6.3 -30.1°
Sets 22:35:55 0° 324° (NW) 3,916 7.2 -30.5°
